Location: Wallasey
(53.4265°N, 3.0662°W)
Time: 03:03:55
(UTC+01:00)

NOAA 18 - Pass Details

Date: 24 September 2019
Orbit: 840 x 861 km, 99.1° (Epoch: 22 October)

Event Time Altitude Azimuth Distance (km) Brightness Sun altitude
Exits shadow 20:49:47 17° 147° (SSE) 2,016 6.7 -15.8°
Maximum altitude 20:54:01 67° 68° (ENE) 934 5.2 -16.4°
Drops below altitude 10° 20:59:33 10° 348° (NNW) 2,514 8.1 -17.2°
Sets 21:01:57 0° 345° (NNW) 3,455 9.0 -17.5°
